Theta_e
318 318 313 318 320 315 319 321 320 323 324 322 323 329 335 337 346 346 347 349 346 347 346 350 349 345 341 337 334 333 331 328 329 332 336 337 334 330 328 335 339 341 340 338 338 333 330 331 332
318 315 316 312 318 321 320 317 320 322 323 320 321 323 342 348 348 346 349 350 347 347 347 350 350 346 341 337 335 333 331 328 327 328 330 330 327 327 333 339 339 339 339 339 336 333 329 329 329
315 315 313 318 315 318 318 317 320 321 320 322 321 325 340 350 350 345 346 352 350 350 346 349 350 347 342 337 335 333 331 328 326 325 326 325 326 329 336 338 339 340 340 339 337 335 332 332 333
316 309 308 316 319 318 317 318 317 318 319 319 321 321 326 349 347 344 350 352 352 350 347 348 349 348 343 337 334 333 331 329 326 324 325 326 328 332 337 339 339 338 336 335 333 329 329 329 331
312 305 308 313 314 317 316 316 316 317 319 320 317 319 320 346 345 346 351 352 350 349 347 347 349 349 344 337 335 333 332 330 328 326 325 326 330 334 336 337 335 334 332 331 332 329 325 325 328
311 306 309 309 313 314 315 314 314 314 315 316 317 318 340 349 351 352 351 353 350 348 348 348 349 348 345 337 335 333 333 331 329 328 327 328 330 332 333 332 332 332 333 332 329 327 325 324 325
311 308 310 309 309 310 312 311 313 314 314 314 318 328 347 351 351 353 352 353 352 349 352 353 349 348 345 338 336 334 333 332 331 329 329 330 333 335 334 333 334 334 333 326 325 325 325 326 326
310 308 314 308 311 311 312 311 312 311 313 314 316 318 332 352 353 353 352 352 353 354 354 356 353 349 344 338 337 335 334 334 332 331 330 331 335 337 337 337 337 334 330 329 327 327 327 327 328
310 313 315 313 311 311 311 310 311 311 312 315 316 319 323 352 352 351 351 353 354 354 354 357 353 353 344 340 338 336 335 336 335 333 332 332 333 334 335 335 333 332 332 331 329 328 328 328 328
313 313 316 311 313 311 311 313 313 315 315 316 316 316 350 352 351 352 351 351 352 352 352 352 351 354 346 344 340 337 337 337 337 335 333 332 332 333 334 334 334 333 332 333 333 332 330 328 327
311 317 316 315 313 313 314 316 313 315 314 314 315 317 354 352 351 352 351 351 351 350 350 350 354 349 348 348 343 340 338 339 339 337 335 333 333 331 332 334 334 334 334 335 333 333 332 332 331
309 311 315 315 315 315 316 316 316 314 316 316 314 316 327 355 352 352 351 350 350 350 350 350 350 348 347 349 344 341 339 340 341 340 336 334 333 331 331 332 333 334 337 339 338 336 335 336 335
307 307 309 312 314 313 314 315 316 316 315 315 315 315 315 322 354 352 352 350 350 349 349 349 348 347 349 348 346 343 341 340 339 338 335 331 332 329 328 330 333 336 340 341 340 339 338 339 340
312 311 310 310 308 311 313 314 314 316 314 315 315 313 313 312 346 352 351 350 349 349 349 348 348 348 348 348 346 343 341 338 339 338 334 330 329 327 329 329 338 341 342 342 342 343 342 343 341
310 313 313 311 310 310 311 313 313 313 312 312 313 313 313 313 352 353 352 350 350 349 348 347 347 349 348 346 342 339 338 337 337 334 334 330 328 332 339 338 339 341 341 343 343 343 344 343 341
313 315 317 314 311 311 313 314 314 313 312 313 313 314 314 313 349 352 352 350 349 349 348 348 347 349 347 345 341 338 337 336 335 333 331 332 328 334 341 341 342 343 342 344 345 345 343 340 339
312 316 318 317 314 312 313 314 314 315 312 313 313 314 314 312 318 342 353 351 349 348 348 347 345 345 346 343 341 340 339 335 333 332 331 331 329 332 339 340 342 346 344 345 345 343 340 339 337
317 317 315 320 314 312 312 314 313 314 314 314 313 313 313 312 315 327 351 350 349 348 347 345 344 344 345 343 342 340 339 336 334 333 333 333 332 332 338 340 342 347 345 344 343 340 337 336 331
313 315 313 312 311 312 314 314 314 312 312 312 312 312 312 312 312 336 349 349 347 347 346 344 343 342 344 342 341 340 340 338 337 335 334 338 340 337 338 340 347 344 343 342 339 338 333 328 326
310 310 309 309 310 311 310 310 310 311 312 312 312 312 312 311 321 347 347 345 345 346 345 343 342 342 342 341 340 340 339 337 338 339 340 341 343 343 341 345 345 343 341 338 335 332 329 326 325
308 309 309 309 309 309 309 312 313 313 313 313 312 312 312 311 323 348 348 345 345 344 343 343 342 341 342 342 341 342 341 342 342 343 345 344 344 344 344 345 344 342 337 335 330 328 327 324 330
309 308 310 311 312 311 312 315 312 313 313 313 312 311 311 311 326 345 348 346 345 345 344 342 342 342 342 345 343 343 345 347 346 345 346 347 346 345 344 343 341 337 334 330 329 329 327 327 328
307 311 311 311 314 314 314 313 309 311 313 312 311 311 310 310 328 342 345 347 346 345 345 343 342 342 342 347 345 345 345 347 348 346 345 346 345 344 343 339 337 334 329 329 329 330 329 328 327
306 308 312 312 313 315 313 313 310 311 312 312 312 312 313 311 318 337 342 344 345 345 344 344 341 341 341 346 348 347 347 346 346 344 342 343 342 340 337 335 332 330 328 327 330 330 327 321 319
312 312 308 317 317 315 312 314 313 310 310 311 311 311 311 311 310 331 338 343 344 344 343 342 340 341 342 344 348 349 348 347 344 342 341 339 336 334 332 331 325 327 330 331 329 325 320 321 320
313 311 309 312 316 312 312 315 313 311 312 311 311 310 310 309 308 323 332 339 342 343 343 342 340 339 342 343 346 347 347 344 341 340 338 335 335 332 330 329 331 330 327 324 322 322 322 321 320
316 315 311 313 315 313 313 313 311 310 310 311 310 310 309 310 309 308 331 334 339 342 342 341 340 338 339 343 346 346 344 340 338 337 337 336 332 332 331 328 327 323 322 321 321 321 320 319 317
315 317 318 319 316 316 315 316 313 310 310 310 310 309 313 314 312 308 324 333 337 340 341 340 339 339 338 343 345 342 339 337 337 336 334 333 331 328 326 324 322 319 318 317 317 316 314 314 312
317 318 320 316 311 309 316 318 313 311 309 309 308 307 312 314 315 312 311 334 334 337 337 337 339 342 338 341 338 337 336 337 336 337 336 330 325 324 322 320 318 316 315 314 314 313 312 311 310
314 317 318 321 319 314 312 314 310 313 311 308 312 313 312 312 316 313 310 334 333 334 333 336 342 342 339 337 334 334 333 332 333 330 326 322 322 320 318 317 315 313 313 312 311 310 308 307 307
Wind_Speed
4 2 1 3 2 4 5 8 3 4 3 3 3 4 7 4 5 6 7 23 34 41 37 35 34 32 31 29 26 23 23 22 23 24 24 24 23 24 26 25 22 18 16 13 12 10 9 9 8
7 6 4 2 4 2 7 6 13 8 3 8 6 1 3 3 2 5 10 14 36 44 38 35 33 31 30 29 27 24 22 22 22 23 23 24 24 25 25 23 19 15 14 13 12 10 9 9 9
7 5 4 5 5 9 10 6 5 5 6 2 7 2 2 2 2 9 6 22 36 41 38 36 33 31 30 29 28 26 23 22 22 22 23 24 25 25 23 20 17 14 13 12 10 8 8 7 6
6 4 4 4 10 13 6 4 4 3 4 2 3 7 6 0 6 12 24 31 36 38 36 36 34 32 30 29 28 27 24 22 21 22 22 23 23 22 20 18 15 13 11 10 9 8 8 8 8
3 3 2 4 10 9 4 3 3 5 1 3 4 6 7 4 7 21 29 31 40 39 37 35 34 33 31 29 27 26 24 22 21 21 21 22 21 20 18 17 15 13 11 10 9 9 9 8 8
2 3 2 11 17 2 6 9 3 4 5 4 5 3 5 3 14 23 29 31 40 41 37 35 33 31 30 29 27 26 24 23 22 21 21 21 19 18 16 15 13 12 10 8 8 8 8 8 7
6 4 7 5 6 6 8 7 6 6 6 7 5 4 4 4 12 24 27 28 33 38 33 31 32 31 30 28 27 26 24 23 21 20 20 20 19 17 16 14 12 10 9 7 6 6 5 4 4
5 4 5 7 11 14 3 6 4 10 10 4 6 7 6 2 21 25 23 27 30 28 26 25 29 31 30 29 27 26 24 22 20 20 20 19 17 15 14 12 10 8 7 5 4 3 1 1 1
4 3 9 10 10 8 1 5 0 2 3 2 4 3 5 20 28 28 23 22 24 24 25 27 29 29 32 30 28 26 24 21 19 19 18 19 18 16 14 11 9 7 5 3 2 1 1 2 3
6 5 12 6 12 5 3 1 2 2 1 3 5 5 7 24 26 24 21 23 27 27 26 31 27 30 33 31 29 27 25 22 20 19 18 18 17 15 13 10 8 6 5 3 2 1 1 3 4
7 16 13 3 8 4 6 4 5 5 7 6 7 3 7 10 12 17 24 28 28 29 27 32 33 35 35 30 32 29 27 24 20 19 17 16 16 15 14 11 9 8 6 5 3 3 2 3 4
6 10 18 2 11 4 4 3 6 10 11 6 7 5 4 10 11 11 19 26 31 30 28 34 37 36 35 33 32 33 31 28 25 20 18 17 16 14 13 13 11 9 6 4 4 3 3 3 4
7 3 5 15 17 10 7 11 9 16 6 8 8 10 11 9 15 18 14 21 28 29 28 34 37 36 34 33 33 34 31 30 27 25 23 21 17 16 16 14 11 9 7 5 3 4 4 5 6
3 4 11 13 6 4 14 19 8 23 6 11 8 11 13 9 16 18 22 23 31 30 31 37 37 34 35 34 36 36 32 30 29 27 24 21 20 17 16 15 13 10 8 8 7 7 7 8 8
9 16 16 8 3 7 4 17 26 14 10 10 12 9 11 9 13 19 30 31 38 37 34 33 32 31 36 37 37 36 33 31 30 27 25 24 22 20 16 14 12 10 8 8 9 9 9 6 4
8 4 4 4 11 7 11 27 8 12 10 13 10 9 10 6 16 22 29 27 27 29 38 33 33 35 38 37 36 35 34 32 30 27 26 25 23 21 18 13 11 10 10 11 10 9 7 4 2
3 5 4 6 6 6 14 12 5 9 9 11 10 10 10 8 7 15 27 33 34 36 34 36 38 41 39 35 34 33 32 30 28 28 27 25 23 20 17 14 11 9 11 11 11 9 6 3 4
4 5 4 3 5 6 9 21 8 12 4 8 8 8 8 9 11 18 23 27 30 32 32 33 39 38 38 35 32 28 27 28 27 27 25 22 21 20 16 13 13 9 10 10 9 7 2 3 4
11 15 12 7 9 6 7 7 8 9 12 8 9 8 9 9 6 15 20 25 29 32 34 37 37 38 38 36 33 30 32 29 28 25 23 23 21 17 16 14 12 11 9 8 7 4 1 2 5
11 11 13 6 10 5 8 14 13 10 11 6 8 9 10 6 5 7 17 22 26 36 38 38 39 40 40 37 33 25 30 26 26 23 20 19 18 15 15 16 15 10 7 7 4 3 3 4 7
8 9 5 9 7 11 7 18 14 12 7 6 9 9 7 11 11 10 11 21 24 26 33 39 43 43 38 36 34 21 24 19 22 20 19 19 16 17 18 18 13 8 8 6 5 3 3 5 7
13 9 11 7 2 5 1 6 5 4 9 9 10 9 10 9 9 11 15 13 24 29 34 34 33 38 39 35 36 31 26 17 16 23 19 16 19 21 19 14 11 9 8 8 6 5 7 7 5
10 8 8 7 5 3 4 3 7 7 8 9 8 8 9 6 12 15 15 22 29 31 33 35 33 35 37 36 38 34 25 24 20 19 20 19 16 19 15 13 12 11 11 8 7 8 7 6 4
5 2 4 2 4 7 6 6 5 8 7 3 5 1 5 7 9 14 20 25 26 27 27 28 30 32 36 35 37 36 29 27 22 21 23 24 22 18 16 14 14 12 12 12 10 7 7 8 8
2 5 1 3 4 8 11 10 17 8 7 4 4 2 7 7 6 9 14 15 20 22 26 28 29 30 34 34 34 30 30 31 26 27 30 30 26 21 19 17 18 17 14 11 8 7 9 9 8
6 7 5 6 4 4 12 9 14 20 20 20 16 8 7 8 6 8 12 15 23 28 28 28 29 29 34 34 29 27 29 28 26 25 28 26 24 22 23 23 20 16 12 10 8 9 9 7 7
2 6 7 2 3 2 4 6 15 16 18 15 8 8 8 8 7 9 11 14 21 26 31 34 32 27 31 30 29 27 26 26 23 24 25 26 25 26 25 23 20 16 15 13 11 11 10 8 8
14 5 3 3 3 6 5 6 12 7 15 18 15 8 8 8 8 7 10 15 25 29 31 29 29 28 33 29 26 27 26 25 26 30 29 28 26 25 25 23 20 19 17 14 12 12 10 7 7
3 3 3 2 4 5 2 7 12 9 6 8 8 8 10 10 9 7 7 14 22 24 25 24 29 28 31 29 27 29 30 31 34 30 32 28 31 27 27 25 23 20 17 13 11 9 7 6 8
3 4 7 5 3 4 3 9 4 3 5 7 6 7 7 8 9 7 7 10 16 22 24 28 29 29 30 32 28 32 33 36 40 39 38 34 31 28 27 24 22 19 16 12 9 8 10 11 13
Wind_Direction
176 171 128 63 63 63 260 246 232 216 230 134 235 194 223 202 177 214 323 162 160 165 166 165 165 161 156 150 144 141 139 141 144 147 149 149 148 148 148 147 146 145 143 138 132 129 129 131 134
152 138 86 80 119 168 248 202 220 221 239 334 335 276 262 316 70 95 112 171 167 164 164 165 165 162 157 152 148 146 143 142 144 147 149 148 146 147 147 146 144 141 138 136 133 131 131 134 137
149 158 106 149 170 216 242 196 184 219 271 292 319 283 257 243 150 160 179 169 164 163 164 164 166 165 160 156 151 149 148 145 145 145 147 147 147 148 148 147 142 136 133 130 130 129 125 125 127
159 35 28 141 215 248 203 152 90 25 352 248 313 292 314 52 152 165 158 164 162 163 165 166 168 167 163 159 155 152 149 147 146 146 148 148 147 148 148 147 142 139 138 136 132 134 142 145 147
97 66 178 233 242 250 234 241 245 264 119 247 12 280 295 15 138 157 162 167 168 165 168 169 170 168 165 162 158 152 150 148 148 148 151 152 151 151 153 155 154 155 156 154 153 154 155 159 163
66 103 159 226 233 253 248 229 211 183 171 284 307 265 256 147 139 155 161 166 172 168 170 170 171 169 166 164 159 156 154 151 151 152 155 155 153 153 158 162 161 161 161 164 165 164 165 167 171
158 134 221 230 265 261 237 177 209 219 188 230 231 269 248 180 160 155 157 162 166 170 167 167 170 170 168 166 161 160 158 155 155 156 159 159 159 158 159 161 163 166 173 177 171 167 169 176 180
140 150 221 215 232 263 183 182 189 185 229 218 189 221 255 183 158 153 154 161 164 158 158 160 166 168 167 166 164 163 163 160 159 160 162 164 165 161 163 169 174 175 178 182 176 166 168 183 259
136 207 231 223 193 230 150 187 134 166 233 250 221 248 276 159 149 137 136 143 150 158 161 164 161 164 168 166 165 164 165 162 163 165 168 170 173 173 176 179 179 182 184 186 179 184 219 266 268
172 209 228 182 228 212 205 191 243 318 245 280 308 318 86 150 153 150 158 164 164 167 166 169 165 165 167 163 165 166 163 167 169 171 174 180 181 182 184 184 189 194 199 216 227 259 287 297 302
199 235 239 226 233 231 257 246 206 194 245 207 236 280 122 161 188 178 168 170 170 167 168 169 169 171 166 161 166 165 167 169 174 178 180 184 187 190 192 193 196 205 207 223 234 246 258 286 311
264 239 233 188 229 270 239 208 259 211 228 210 207 258 194 179 194 204 170 167 164 171 172 174 175 169 170 165 168 169 172 174 177 181 183 190 191 193 204 206 202 211 225 224 242 273 290 310 327
245 299 279 238 252 251 279 234 254 257 239 265 264 277 267 215 201 189 197 168 162 172 175 177 174 173 171 168 170 175 178 180 180 182 186 185 194 196 200 211 210 213 221 243 254 258 267 271 278
254 230 259 267 241 240 241 265 264 257 253 245 238 252 263 257 204 165 169 176 173 175 179 180 178 176 177 175 176 179 182 183 183 186 188 188 185 195 202 208 217 222 230 244 253 269 269 279 269
270 276 283 245 249 243 198 279 240 252 246 269 262 241 264 269 170 177 178 184 177 183 177 181 179 183 184 184 183 182 185 185 186 189 190 191 192 181 199 203 222 239 250 261 254 265 273 261 243
332 257 219 236 189 230 159 255 306 213 187 229 233 240 255 230 192 182 180 184 185 175 182 181 184 187 190 190 188 184 186 187 188 191 194 197 196 190 196 207 237 253 258 267 249 243 246 228 249
258 270 261 296 199 190 196 251 268 195 177 227 222 214 228 239 214 201 185 182 182 185 180 182 188 193 193 194 192 191 189 189 191 195 199 197 199 196 200 215 232 241 254 249 231 217 208 236 285
235 268 322 268 10 11 265 251 290 298 184 239 228 227 217 229 213 205 191 183 180 186 183 183 191 194 194 194 195 193 194 196 197 200 204 199 200 202 203 222 243 226 223 210 204 203 226 296 314
249 269 274 281 289 325 267 275 280 276 290 225 239 222 229 225 250 197 182 174 173 184 184 188 189 196 194 194 191 192 196 197 200 202 201 203 202 199 208 220 222 198 198 205 215 217 176 54 4
204 236 267 255 260 240 283 289 284 266 268 242 250 235 224 181 227 163 159 166 175 181 186 188 192 195 195 194 189 188 192 194 202 198 202 204 200 202 210 215 198 200 216 217 190 180 142 75 40
209 210 218 247 251 275 279 278 270 269 232 227 245 245 223 198 184 183 175 174 178 182 185 188 192 196 190 194 187 184 182 185 196 201 203 202 208 208 211 207 201 201 190 157 152 146 106 109 66
240 198 223 193 164 251 110 285 278 246 234 211 216 225 241 184 170 185 188 182 182 193 193 193 192 191 191 194 187 185 177 170 186 194 201 201 208 208 202 197 179 163 151 142 139 115 101 104 91
227 187 193 202 180 157 266 308 273 221 225 231 203 231 245 232 170 179 192 195 196 196 195 194 193 192 191 191 193 191 178 188 181 186 192 184 186 181 163 166 155 140 141 143 130 114 96 84 91
226 193 32 55 142 232 200 202 244 227 221 267 118 207 235 245 194 187 194 198 201 199 194 188 191 190 192 189 196 196 185 179 166 152 150 150 153 147 149 144 129 132 134 126 120 102 89 89 93
122 128 285 241 224 241 177 211 240 266 242 259 122 97 319 305 226 195 188 191 199 195 189 183 181 184 191 190 194 190 181 184 169 157 154 149 145 144 138 133 129 127 121 116 106 105 105 96 81
207 168 168 216 201 251 180 208 238 224 250 257 257 223 243 273 237 210 198 193 190 189 189 183 176 182 187 188 189 179 180 170 162 163 153 146 140 137 135 131 126 118 112 111 116 113 102 95 80
195 210 212 246 207 13 237 278 280 235 239 240 232 189 237 252 259 217 199 195 191 188 189 184 177 179 180 177 174 173 166 159 148 153 151 136 134 134 134 128 120 114 109 107 109 100 94 88 77
215 138 133 173 204 222 235 235 233 178 220 234 241 182 192 257 263 238 202 191 192 191 190 185 176 173 171 166 162 156 153 156 150 140 130 136 139 144 133 124 124 117 108 100 95 90 84 71 52
168 224 192 171 174 198 162 237 231 236 226 226 245 214 203 205 247 251 203 189 187 180 174 168 162 158 155 155 145 144 142 141 139 137 139 148 148 138 131 129 121 112 104 97 87 75 60 38 22
263 279 196 239 224 225 200 259 10 141 251 219 223 203 226 229 237 233 201 161 154 158 156 156 159 154 149 146 143 133 137 137 136 144 141 146 134 131 130 122 112 105 95 84 72 54 35 26 26